Preview of NWS' New Version of Forecast
This preview is not operational and should not be used for support decisions.

Regional Weather Roundup (RWR)

Issued by Philadelphia/Mt Holly (PHI)

                            
000
ASUS41 KPHI 160813
RWRPHI

REGIONAL WEATHER ROUNDUP
NATIONAL WEATHER SERVICE MOUNT HOLLY NJ
400 AM EDT TUE OCT 16 2018

NOTE:  "FAIR" INDICATES FEW OR NO CLOUDS BELOW 12,000 FEET WITH NO
SIGNIFICANT WEATHER AND/OR OBSTRUCTIONS TO VISIBILITY.

 * = STATION DOES NOT REPORT PRECIPITATION (E.G. RAIN, SNOW, ETC.) 
        OR FOG.

NJZ015>026-160900-
SOUTHERN NEW JERSEY
  
CITY           SKY/WX    TMP DP  RH WIND       PRES   REMARKS
POMONA         CLOUDY    59  55  87 W7        30.05R                  
MILLVILLE      CLOUDY    58  48  69 NW10      30.07R                  
WRIGHTSTOWN    CLOUDY    56  44  63 NW12      30.01R                  
MOUNT HOLLY    CLOUDY    57  43  59 W8        30.06R                  
TRENTON        FAIR      55  44  66 VRB7      30.05R                  

$$
NJZ001>014-160900-
NORTHERN NEW JERSEY
  
CITY           SKY/WX    TMP DP  RH WIND       PRES   REMARKS
SUSSEX         FAIR      49  36  61 VRB7      30.06R                  
ANDOVER*         N/A     50  39  66 N6        30.05R                  
MORRISTOWN     FAIR      54  43  66 NW6       30.03R                  
NEWARK         CLOUDY    55  42  61 NW18      30.01R                  
TETERBORO      FAIR      55  43  63 NW9       30.01R                  
CALDWELL       FAIR      53  41  63 NW15G22   30.04R                  
SOMERVILLE     FAIR      54  40  59 NW10      30.02R                  
ALLAIRE*       FAIR      57  46  66 NW12      30.03R                  
TOMS RIVER*    MOCLDY    57  46  66 NW14      30.04R                  

$$
PAZ043-044-047-054-055-060>062-066>071-160900-
EASTERN PENNSYLVANIA
  
CITY           SKY/WX    TMP DP  RH WIND       PRES   REMARKS
PHILADELPHIA   CLOUDY    57  41  55 NW15      30.08R                  
NORTH PHILA    FAIR      58  43  57 NW14G21   30.08R                  
BLUE BELL*     FAIR      52  41  66 W5        30.08R                  
DOYLESTOWN     FAIR      53  42  66 MISG      30.05R                  
QUAKERTOWN*    CLEAR     52  43  71 VRB6G16   30.07R                  
PERKASIE*      FAIR      52  43  71 NW8G20    30.08R                  
POTTSTOWN      FAIR      52  40  63 NW9       30.10R                  
LANCASTER      FAIR      52  41  66 W12       30.11R                  
COATESVILLE    FAIR      52  39  62 W7        30.11R                  
READING        FAIR      53  43  68 W13       30.09R                  
ALLENTOWN      FAIR      53  36  52 NW9       30.08R                  
MOUNT POCONO   FAIR      42  35  76 NW16G28   30.04R                  
HAZLETON       FAIR      45  32  61 W6G16     30.11R                  
LEHIGHTON      FAIR      50  36  57 CALM      30.09R                  
WILKES BARRE   FAIR      44  31  60 NW13G24   30.11R                  

$$
DEZALL-MDZ008-012-015-019-020-160900-
DELAWARE AND EASTERN MARYLAND
  
CITY           SKY/WX    TMP DP  RH WIND       PRES   REMARKS
WILMINGTON     FAIR      56  43  61 NW12      30.10R                  
DOVER          CLOUDY    60  51  73 NW21G26   30.07R                  
GEORGETOWN     CLOUDY    65  57  75 N5        30.08R                  
EASTON         CLOUDY    63  51  64 N7        30.13R                  
PATUXENT       CLOUDY    68  50  52 NW21      30.09                   
OCEAN CITY     CLOUDY    62  58  86 N10       30.07R                  
WALLOPS ISLAND LGT RAIN  67  57  70 NW14G22   30.06R                  
CAMBRIDGE      CLOUDY    64  52  63 NW17G25   30.08R                  
SALISBURY      CLOUDY    65  55  70 NW14      30.07R                  

$$
PAZ001-021-NYZ056-072-MDZ011-DCZ001-160900-
OTHER NEARBY LOCATIONS
  
CITY           SKY/WX    TMP DP  RH WIND       PRES   REMARKS
HARRISBURG     CLOUDY    53  36  52 NW12      30.12R                  
STATE COLLEGE  MOCLDY    43  32  66 NW5       30.17R                  
WILLIAMSPORT   FAIR      45  31  58 NW12      30.13R                  
BINGHAMTON     FAIR      35  25  66 W9        30.07F WCI  28          
NEW YORK CITY  FAIR      55  42  61 MISG      30.03R                  
BALTIMORE      MOCLDY    58  44  60 NW12      30.10R                  
WASHINGTON DC  MOCLDY    61  45  55 N14       30.13R                  

$$